GFSNE_prec_precacc_258.txt.gz
Total_Precipitation_Accumulation
1.58 1.51 1.51 1.37 1.42 1.59 1.90 2.33 2.97 2.66 1.62 1.00 0.97 1.00 1.09 1.19 1.42 1.29 1.16 1.50 1.47 1.40 1.40 1.46 1.45 1.62 1.72 1.98 2.27 2.35 2.81 3.45 3.36 2.66 2.29 2.31 2.11 2.12
1.64 1.72 1.71 1.67 1.66 1.51 1.49 1.72 2.06 2.53 2.33 1.29 1.18 1.17 1.36 1.63 2.11 2.00 1.90 2.21 1.78 1.53 1.40 1.14 1.01 0.95 1.00 1.07 1.02 1.01 1.32 2.09 2.86 2.77 2.56 2.60 2.80 2.63
1.84 2.12 2.26 2.34 2.49 2.47 2.58 2.75 2.91 3.13 3.17 2.07 1.64 1.50 1.52 1.57 1.55 1.41 1.42 1.34 1.42 1.69 1.49 1.35 1.16 0.99 0.86 0.83 0.86 0.77 0.70 0.83 1.18 1.72 1.92 1.95 2.16 2.53
0.81 1.07 1.18 1.32 1.57 1.67 1.89 2.08 2.44 2.91 3.44 2.71 2.01 1.88 1.77 1.63 1.43 1.17 1.08 1.14 1.20 1.67 1.56 1.43 1.30 1.16 1.16 1.16 1.00 0.88 0.81 0.77 0.71 0.80 1.12 1.36 1.50 1.59
0.67 0.74 0.86 0.97 1.02 1.04 1.09 1.18 1.26 1.41 1.70 1.66 1.28 1.12 1.15 1.33 1.50 1.46 1.32 1.26 1.21 1.65 1.43 1.46 1.48 1.33 1.16 1.07 1.11 1.16 1.17 0.99 0.84 0.78 0.89 1.19 1.53 1.71
0.52 0.58 0.61 0.76 0.95 1.09 1.41 1.63 1.53 1.45 1.29 1.09 0.96 0.88 0.80 0.80 0.93 1.00 1.00 0.91 0.78 0.76 0.93 0.92 1.02 0.99 1.01 1.01 0.93 0.93 1.06 1.21 1.31 1.25 1.16 1.14 1.21 1.39
0.89 0.88 1.03 1.09 1.22 1.17 1.02 0.94 1.07 1.10 1.17 1.27 1.08 0.86 0.77 0.69 0.68 0.71 0.78 0.83 0.83 0.80 0.67 0.61 0.54 0.50 0.60 0.74 0.82 0.93 0.93 0.97 1.07 1.23 1.32 1.33 1.40 1.52
0.98 1.11 1.11 1.38 1.06 1.10 1.10 1.06 1.01 1.01 0.87 0.71 0.66 0.65 0.69 0.74 0.76 0.82 0.90 1.02 0.98 0.69 0.70 0.67 0.61 0.54 0.46 0.45 0.67 0.72 0.80 0.86 0.90 0.90 1.02 1.21 1.22 1.21
0.62 0.63 0.46 0.47 0.57 0.53 0.67 0.67 0.64 0.57 0.52 0.54 0.47 0.39 0.36 0.37 0.50 0.62 0.65 0.70 0.62 0.51 0.65 0.73 0.63 0.58 0.45 0.45 0.46 0.40 0.47 0.57 0.63 0.69 0.76 0.83 1.00 1.22
0.31 0.22 0.16 0.14 0.21 0.24 0.31 0.39 0.42 0.40 0.40 0.37 0.35 0.35 0.35 0.38 0.47 0.64 0.59 0.59 0.47 0.33 0.30 0.41 0.28 0.32 0.25 0.26 0.34 0.32 0.35 0.37 0.39 0.45 0.54 0.67 0.77 0.85
0.10 0.04 0.04 0.02 0.08 0.16 0.15 0.20 0.24 0.23 0.39 0.47 0.55 0.63 0.65 0.60 0.48 0.48 0.58 0.60 0.47 0.18 0.10 0.17 0.12 0.16 0.17 0.18 0.20 0.30 0.32 0.38 0.46 0.53 0.48 0.50 0.63 0.74
0.03 0.03 0.04 0.04 0.07 0.09 0.10 0.07 0.10 0.03 0.06 0.09 0.11 0.19 0.28 0.33 0.39 0.31 0.28 0.57 0.54 0.63 0.30 0.47 0.27 0.24 0.54 0.16 0.15 0.22 0.25 0.30 0.33 0.40 0.65 0.75 0.69 0.70
0.03 0.02 0.02 0.06 0.11 0.13 0.14 0.09 0.13 0.12 0.10 0.09 0.06 0.11 0.18 0.28 0.33 0.35 0.37 0.55 0.84 0.68 0.18 0.87 1.06 0.52 0.91 0.35 0.08 0.11 0.14 0.20 0.28 0.34 0.45 0.63 0.87 0.90
0.04 0.03 0.02 0.09 0.13 0.11 0.12 0.11 0.15 0.17 0.10 0.06 0.07 0.08 0.15 0.22 0.28 0.36 0.49 0.61 0.63 0.74 0.36 0.62 1.48 0.71 1.09 0.87 0.34 0.13 0.16 0.18 0.24 0.30 0.37 0.58 0.76 0.89
0.04 0.07 0.10 0.11 0.11 0.08 0.08 0.11 0.11 0.09 0.09 0.13 0.10 0.09 0.11 0.16 0.31 0.51 0.65 0.74 0.86 0.82 0.76 0.83 1.07 0.90 1.24 1.28 0.66 0.26 0.31 0.28 0.24 0.27 0.37 0.52 0.64 0.72
0.07 0.10 0.14 0.13 0.12 0.10 0.11 0.11 0.09 0.11 0.17 0.24 0.19 0.14 0.19 0.29 0.43 0.50 0.67 0.65 0.89 0.72 0.72 0.90 0.90 1.17 1.50 0.95 0.90 0.65 0.30 0.50 0.40 0.38 0.46 0.45 0.53 0.70
0.39 0.25 0.21 0.14 0.11 0.12 0.11 0.12 0.19 0.26 0.33 0.31 0.39 0.43 0.40 0.40 0.40 0.39 0.62 0.81 0.98 0.63 0.54 0.58 0.79 0.90 0.95 0.97 1.15 0.62 0.44 0.38 0.33 0.51 0.60 0.54 0.45 0.66
0.46 0.31 0.21 0.15 0.14 0.15 0.19 0.23 0.29 0.36 0.38 0.47 0.54 0.55 0.63 0.62 0.56 0.56 0.62 0.77 0.76 0.51 0.58 0.64 0.71 1.05 0.97 0.80 0.76 0.70 0.66 0.44 0.32 0.33 0.45 0.86 0.48 0.33
0.41 0.16 0.14 0.16 0.17 0.19 0.25 0.32 0.34 0.27 0.40 0.62 0.71 0.72 0.78 0.82 0.83 0.74 0.57 0.69 0.66 0.53 0.57 0.70 0.95 1.43 1.64 0.75 0.40 0.45 0.86 0.70 0.47 0.45 0.44 0.56 0.61 0.35
0.20 0.15 0.13 0.14 0.20 0.29 0.33 0.40 0.45 0.47 0.52 0.56 0.66 0.68 0.82 1.01 0.88 0.68 0.62 0.73 0.77 0.72 0.69 0.65 0.76 1.08 1.85 1.26 1.19 0.45 0.41 0.82 0.99 0.72 0.44 0.41 0.55 0.47
0.09 0.17 0.15 0.18 0.30 0.37 0.44 0.56 0.66 0.67 0.63 0.77 0.70 0.68 0.65 1.02 0.88 0.60 0.70 0.64 0.81 0.92 0.77 0.39 0.30 0.63 1.14 1.58 1.60 0.64 0.53 0.57 0.81 1.20 0.95 1.02 0.55 0.42
0.11 0.21 0.25 0.32 0.41 0.50 0.61 0.67 0.75 0.63 0.61 0.56 0.50 0.55 0.62 0.85 0.96 0.80 0.72 0.90 0.65 0.52 0.51 0.40 0.53 0.72 0.96 1.41 0.91 0.44 0.41 0.45 0.51 0.51 0.70 1.42 1.76 1.57
0.31 0.42 0.44 0.45 0.53 0.65 0.76 0.80 0.70 0.52 0.44 0.55 0.56 0.56 0.67 0.89 0.64 0.74 0.76 0.76 0.72 0.83 0.63 0.62 0.57 0.64 0.75 0.78 0.87 0.71 0.49 0.41 0.35 0.37 0.41 0.42 0.44 0.47

GFSNE_prec_precacc_264.txt.gz
Total_Precipitation_Accumulation
1.58 1.51 1.51 1.37 1.42 1.59 1.90 2.33 2.97 2.66 1.62 1.00 0.97 1.00 1.09 1.19 1.42 1.29 1.16 1.50 1.47 1.41 1.41 1.46 1.45 1.62 1.73 1.98 2.27 2.35 2.81 3.45 3.36 2.66 2.31 2.33 2.14 2.16
1.64 1.72 1.71 1.67 1.66 1.51 1.49 1.72 2.06 2.53 2.33 1.29 1.18 1.17 1.36 1.63 2.11 2.00 1.90 2.21 1.78 1.54 1.43 1.15 1.01 0.95 1.01 1.07 1.02 1.01 1.32 2.09 2.86 2.78 2.59 2.63 2.85 2.70
1.85 2.12 2.26 2.34 2.49 2.47 2.58 2.75 2.91 3.13 3.17 2.07 1.64 1.50 1.52 1.57 1.55 1.41 1.43 1.34 1.42 1.69 1.53 1.36 1.17 0.99 0.86 0.83 0.86 0.77 0.70 0.83 1.18 1.72 1.93 1.96 2.19 2.55
0.86 1.09 1.19 1.32 1.57 1.67 1.89 2.08 2.44 2.91 3.44 2.71 2.01 1.88 1.77 1.63 1.43 1.17 1.08 1.14 1.20 1.68 1.61 1.49 1.31 1.17 1.16 1.16 1.00 0.88 0.81 0.77 0.71 0.80 1.12 1.36 1.50 1.59
0.73 0.79 0.89 0.98 1.02 1.04 1.09 1.18 1.26 1.41 1.70 1.66 1.28 1.12 1.15 1.33 1.50 1.46 1.32 1.26 1.21 1.68 1.47 1.50 1.49 1.34 1.16 1.07 1.11 1.16 1.17 1.00 0.84 0.78 0.89 1.19 1.53 1.71
0.60 0.65 0.65 0.78 0.95 1.09 1.41 1.63 1.53 1.45 1.29 1.09 0.96 0.88 0.80 0.80 0.93 1.00 1.00 0.91 0.79 0.77 0.95 0.95 1.04 1.00 1.02 1.01 0.93 0.93 1.06 1.22 1.32 1.25 1.16 1.14 1.21 1.39
0.99 0.97 1.07 1.10 1.22 1.17 1.02 0.94 1.07 1.10 1.17 1.27 1.08 0.86 0.77 0.69 0.68 0.72 0.78 0.84 0.84 0.80 0.68 0.61 0.54 0.50 0.60 0.74 0.83 0.93 0.93 0.97 1.07 1.23 1.32 1.33 1.40 1.52
1.11 1.23 1.19 1.42 1.09 1.12 1.11 1.06 1.01 1.01 0.87 0.71 0.66 0.65 0.69 0.74 0.77 0.83 0.91 1.02 0.98 0.69 0.70 0.67 0.61 0.54 0.46 0.45 0.68 0.72 0.80 0.86 0.90 0.90 1.02 1.21 1.22 1.21
0.75 0.74 0.54 0.52 0.59 0.53 0.67 0.67 0.64 0.57 0.52 0.54 0.47 0.39 0.36 0.37 0.50 0.62 0.65 0.70 0.62 0.51 0.65 0.73 0.63 0.58 0.45 0.45 0.46 0.40 0.47 0.57 0.63 0.69 0.76 0.83 1.00 1.22
0.41 0.29 0.20 0.17 0.22 0.24 0.31 0.39 0.42 0.40 0.40 0.37 0.35 0.35 0.35 0.38 0.47 0.64 0.59 0.59 0.47 0.33 0.30 0.41 0.28 0.32 0.25 0.26 0.34 0.32 0.35 0.37 0.39 0.45 0.54 0.67 0.77 0.85
0.12 0.06 0.05 0.03 0.10 0.16 0.15 0.20 0.24 0.23 0.39 0.47 0.55 0.63 0.65 0.60 0.48 0.48 0.58 0.60 0.47 0.18 0.10 0.17 0.12 0.16 0.17 0.18 0.20 0.30 0.32 0.38 0.46 0.53 0.48 0.50 0.63 0.74
0.03 0.03 0.05 0.05 0.11 0.10 0.10 0.07 0.10 0.03 0.06 0.09 0.11 0.19 0.28 0.33 0.39 0.31 0.28 0.57 0.54 0.63 0.30 0.47 0.27 0.24 0.54 0.16 0.15 0.22 0.25 0.30 0.33 0.40 0.65 0.75 0.69 0.70
0.03 0.02 0.02 0.08 0.16 0.15 0.15 0.09 0.13 0.12 0.10 0.09 0.06 0.11 0.18 0.28 0.33 0.35 0.37 0.55 0.84 0.68 0.18 0.87 1.06 0.52 0.91 0.35 0.08 0.11 0.14 0.20 0.28 0.34 0.45 0.63 0.87 0.90
0.04 0.03 0.03 0.12 0.18 0.15 0.12 0.11 0.15 0.17 0.10 0.06 0.07 0.08 0.15 0.22 0.28 0.36 0.49 0.61 0.63 0.74 0.36 0.62 1.48 0.71 1.09 0.87 0.34 0.13 0.16 0.18 0.24 0.30 0.37 0.58 0.76 0.89
0.04 0.07 0.10 0.14 0.15 0.11 0.08 0.11 0.11 0.09 0.09 0.13 0.10 0.09 0.11 0.16 0.31 0.51 0.65 0.74 0.86 0.82 0.76 0.83 1.07 0.90 1.24 1.28 0.66 0.26 0.31 0.28 0.24 0.27 0.37 0.52 0.64 0.72
0.07 0.10 0.14 0.14 0.13 0.10 0.11 0.11 0.09 0.11 0.17 0.24 0.19 0.14 0.19 0.29 0.43 0.50 0.67 0.65 0.89 0.72 0.72 0.90 0.90 1.17 1.50 0.95 0.90 0.65 0.30 0.50 0.40 0.38 0.46 0.45 0.53 0.70
0.39 0.25 0.21 0.14 0.11 0.12 0.11 0.12 0.19 0.26 0.33 0.31 0.39 0.43 0.40 0.40 0.40 0.39 0.62 0.81 0.98 0.63 0.54 0.58 0.79 0.90 0.95 0.97 1.15 0.62 0.44 0.38 0.33 0.51 0.60 0.54 0.45 0.66
0.46 0.31 0.21 0.15 0.14 0.15 0.19 0.23 0.29 0.36 0.38 0.47 0.54 0.55 0.63 0.62 0.56 0.56 0.62 0.77 0.76 0.51 0.58 0.64 0.71 1.05 0.97 0.80 0.76 0.70 0.66 0.44 0.32 0.33 0.45 0.86 0.48 0.33
0.41 0.16 0.14 0.16 0.17 0.19 0.25 0.32 0.34 0.28 0.40 0.62 0.71 0.72 0.78 0.82 0.83 0.74 0.57 0.69 0.66 0.53 0.57 0.70 0.95 1.43 1.64 0.75 0.40 0.45 0.86 0.70 0.47 0.45 0.44 0.56 0.61 0.35
0.20 0.15 0.13 0.14 0.20 0.29 0.33 0.41 0.47 0.48 0.52 0.56 0.66 0.68 0.82 1.01 0.88 0.68 0.62 0.73 0.77 0.72 0.69 0.65 0.76 1.09 1.85 1.26 1.19 0.45 0.41 0.82 0.99 0.72 0.44 0.41 0.55 0.47
0.11 0.18 0.15 0.18 0.30 0.37 0.44 0.56 0.67 0.68 0.64 0.78 0.70 0.68 0.65 1.02 0.88 0.60 0.70 0.64 0.81 0.92 0.77 0.39 0.30 0.64 1.15 1.58 1.60 0.64 0.53 0.57 0.81 1.20 0.95 1.02 0.55 0.42
0.11 0.22 0.25 0.32 0.41 0.50 0.61 0.67 0.76 0.64 0.62 0.56 0.50 0.55 0.62 0.85 0.96 0.80 0.72 0.90 0.65 0.52 0.51 0.40 0.53 0.72 0.96 1.41 0.91 0.44 0.41 0.45 0.51 0.51 0.70 1.42 1.76 1.57
0.31 0.42 0.44 0.45 0.53 0.65 0.76 0.80 0.71 0.53 0.45 0.55 0.56 0.56 0.67 0.89 0.64 0.74 0.76 0.76 0.72 0.83 0.63 0.62 0.57 0.64 0.75 0.78 0.87 0.71 0.49 0.41 0.35 0.37 0.41 0.42 0.44 0.47

GFSNE_prec_precacc_267.txt.gz
Total_Precipitation_Accumulation
1.58 1.51 1.51 1.37 1.42 1.59 1.90 2.33 2.97 2.66 1.62 1.00 0.97 1.00 1.09 1.19 1.42 1.29 1.16 1.50 1.47 1.41 1.42 1.46 1.45 1.62 1.73 1.98 2.27 2.35 2.81 3.45 3.36 2.66 2.31 2.34 2.16 2.18
1.64 1.72 1.71 1.67 1.66 1.51 1.49 1.72 2.06 2.53 2.33 1.29 1.18 1.17 1.36 1.63 2.11 2.00 1.90 2.21 1.78 1.55 1.44 1.15 1.02 0.95 1.01 1.07 1.02 1.01 1.32 2.09 2.86 2.78 2.59 2.65 2.86 2.71
1.85 2.12 2.26 2.34 2.49 2.47 2.58 2.75 2.91 3.13 3.17 2.07 1.64 1.50 1.52 1.57 1.55 1.41 1.43 1.34 1.42 1.69 1.56 1.39 1.18 0.99 0.86 0.83 0.86 0.77 0.70 0.83 1.18 1.72 1.93 1.97 2.19 2.55
0.86 1.11 1.21 1.34 1.58 1.67 1.89 2.08 2.44 2.91 3.44 2.71 2.01 1.88 1.77 1.63 1.43 1.17 1.08 1.14 1.20 1.68 1.63 1.53 1.32 1.17 1.16 1.16 1.00 0.88 0.81 0.77 0.71 0.80 1.12 1.36 1.50 1.59
0.75 0.81 0.93 1.02 1.04 1.04 1.09 1.18 1.26 1.41 1.70 1.66 1.28 1.12 1.15 1.33 1.50 1.46 1.32 1.26 1.21 1.68 1.49 1.53 1.52 1.34 1.16 1.07 1.11 1.16 1.17 1.00 0.84 0.78 0.89 1.19 1.53 1.71
0.62 0.68 0.71 0.86 1.00 1.13 1.44 1.64 1.54 1.46 1.29 1.09 0.96 0.88 0.80 0.80 0.93 1.00 1.00 0.91 0.79 0.78 0.96 0.96 1.04 1.01 1.02 1.01 0.93 0.93 1.06 1.22 1.32 1.25 1.16 1.14 1.21 1.39
1.02 1.01 1.13 1.18 1.28 1.22 1.06 0.97 1.10 1.11 1.18 1.27 1.08 0.86 0.77 0.69 0.68 0.72 0.78 0.84 0.85 0.82 0.69 0.62 0.55 0.51 0.60 0.74 0.83 0.93 0.93 0.97 1.07 1.23 1.32 1.33 1.40 1.52
1.16 1.30 1.29 1.53 1.17 1.20 1.18 1.11 1.04 1.01 0.87 0.71 0.66 0.65 0.69 0.74 0.77 0.83 0.93 1.04 1.00 0.70 0.70 0.67 0.61 0.54 0.46 0.45 0.68 0.72 0.80 0.86 0.90 0.90 1.02 1.21 1.22 1.21
0.82 0.82 0.63 0.65 0.71 0.60 0.72 0.69 0.64 0.57 0.52 0.54 0.47 0.39 0.36 0.37 0.50 0.62 0.65 0.70 0.62 0.51 0.65 0.73 0.63 0.58 0.45 0.45 0.47 0.40 0.47 0.57 0.63 0.69 0.76 0.83 1.00 1.22
0.47 0.37 0.30 0.27 0.32 0.31 0.34 0.39 0.42 0.40 0.40 0.37 0.35 0.35 0.35 0.38 0.47 0.64 0.59 0.59 0.47 0.33 0.30 0.41 0.28 0.32 0.25 0.26 0.34 0.32 0.35 0.37 0.39 0.45 0.54 0.67 0.77 0.85
0.19 0.14 0.15 0.12 0.20 0.23 0.18 0.21 0.24 0.23 0.39 0.47 0.55 0.63 0.65 0.60 0.48 0.48 0.58 0.60 0.47 0.18 0.10 0.17 0.12 0.16 0.17 0.18 0.20 0.30 0.32 0.38 0.46 0.53 0.48 0.50 0.63 0.74
0.05 0.06 0.11 0.13 0.19 0.15 0.12 0.07 0.10 0.03 0.06 0.09 0.11 0.19 0.28 0.33 0.39 0.31 0.28 0.57 0.54 0.63 0.30 0.47 0.27 0.24 0.54 0.16 0.15 0.22 0.25 0.30 0.33 0.40 0.65 0.75 0.69 0.70
0.03 0.02 0.04 0.14 0.24 0.20 0.16 0.09 0.13 0.12 0.10 0.09 0.06 0.11 0.18 0.28 0.33 0.35 0.37 0.55 0.84 0.68 0.18 0.87 1.06 0.52 0.91 0.35 0.08 0.11 0.14 0.20 0.28 0.34 0.45 0.63 0.87 0.90
0.04 0.03 0.05 0.16 0.24 0.18 0.13 0.11 0.15 0.17 0.10 0.06 0.07 0.08 0.15 0.22 0.28 0.36 0.49 0.61 0.63 0.74 0.36 0.62 1.48 0.71 1.09 0.87 0.34 0.13 0.16 0.18 0.24 0.30 0.37 0.58 0.76 0.89
0.04 0.08 0.13 0.17 0.21 0.13 0.08 0.11 0.11 0.09 0.09 0.13 0.10 0.09 0.11 0.16 0.31 0.51 0.65 0.74 0.86 0.82 0.76 0.83 1.07 0.90 1.24 1.28 0.66 0.26 0.31 0.28 0.24 0.27 0.37 0.52 0.64 0.72
0.07 0.10 0.15 0.18 0.17 0.10 0.11 0.11 0.09 0.11 0.17 0.24 0.19 0.14 0.19 0.29 0.43 0.50 0.67 0.65 0.89 0.72 0.72 0.90 0.90 1.17 1.50 0.95 0.90 0.65 0.30 0.50 0.40 0.38 0.46 0.45 0.53 0.70
0.39 0.25 0.21 0.16 0.13 0.13 0.11 0.12 0.19 0.26 0.33 0.31 0.39 0.43 0.40 0.40 0.40 0.39 0.62 0.81 0.98 0.63 0.54 0.58 0.79 0.90 0.95 0.97 1.15 0.62 0.44 0.38 0.33 0.51 0.60 0.54 0.45 0.66
0.46 0.31 0.21 0.15 0.14 0.15 0.19 0.23 0.29 0.36 0.38 0.47 0.54 0.55 0.63 0.62 0.56 0.56 0.62 0.77 0.76 0.51 0.58 0.64 0.71 1.05 0.97 0.80 0.76 0.70 0.66 0.44 0.32 0.33 0.45 0.86 0.48 0.33
0.41 0.16 0.14 0.16 0.17 0.19 0.25 0.32 0.34 0.28 0.40 0.62 0.72 0.72 0.78 0.82 0.83 0.74 0.57 0.69 0.66 0.53 0.57 0.70 0.95 1.43 1.64 0.75 0.40 0.45 0.86 0.70 0.47 0.45 0.44 0.56 0.61 0.35
0.24 0.16 0.13 0.14 0.20 0.29 0.33 0.41 0.47 0.48 0.53 0.56 0.66 0.68 0.82 1.01 0.88 0.68 0.62 0.73 0.77 0.72 0.69 0.65 0.76 1.09 1.85 1.26 1.19 0.45 0.41 0.82 0.99 0.72 0.44 0.41 0.55 0.47
0.16 0.21 0.16 0.19 0.30 0.37 0.44 0.56 0.67 0.68 0.64 0.78 0.70 0.68 0.65 1.02 0.88 0.60 0.70 0.64 0.81 0.92 0.77 0.39 0.30 0.64 1.15 1.58 1.60 0.64 0.53 0.57 0.81 1.20 0.95 1.02 0.55 0.42
0.16 0.25 0.26 0.33 0.41 0.50 0.61 0.67 0.76 0.64 0.62 0.57 0.50 0.55 0.62 0.85 0.96 0.80 0.72 0.90 0.65 0.52 0.51 0.40 0.53 0.72 0.96 1.41 0.91 0.44 0.41 0.45 0.51 0.51 0.70 1.42 1.76 1.57
0.33 0.43 0.45 0.46 0.53 0.65 0.76 0.80 0.71 0.53 0.45 0.55 0.56 0.56 0.67 0.89 0.64 0.74 0.76 0.76 0.72 0.83 0.63 0.62 0.57 0.64 0.75 0.78 0.87 0.71 0.49 0.41 0.35 0.37 0.41 0.42 0.44 0.47

GFSNE_prec_precacc_270.txt.gz
Total_Precipitation_Accumulation
1.58 1.51 1.51 1.37 1.42 1.59 1.90 2.33 2.97 2.66 1.62 1.00 0.97 1.01 1.09 1.19 1.42 1.29 1.16 1.50 1.48 1.43 1.43 1.48 1.46 1.63 1.73 1.98 2.27 2.35 2.81 3.45 3.36 2.67 2.32 2.34 2.17 2.19
1.64 1.72 1.71 1.67 1.66 1.51 1.49 1.72 2.06 2.53 2.33 1.29 1.18 1.17 1.36 1.63 2.11 2.00 1.90 2.21 1.78 1.55 1.45 1.16 1.02 0.95 1.01 1.07 1.02 1.02 1.32 2.09 2.86 2.78 2.59 2.65 2.86 2.71
1.85 2.12 2.26 2.34 2.49 2.47 2.58 2.75 2.91 3.13 3.17 2.07 1.64 1.50 1.53 1.57 1.55 1.41 1.43 1.34 1.42 1.70 1.58 1.41 1.18 0.99 0.86 0.83 0.86 0.77 0.70 0.83 1.18 1.72 1.93 1.97 2.19 2.55
0.86 1.11 1.21 1.34 1.58 1.68 1.90 2.10 2.45 2.92 3.45 2.72 2.01 1.88 1.77 1.63 1.43 1.18 1.09 1.15 1.20 1.69 1.66 1.55 1.33 1.17 1.16 1.16 1.00 0.88 0.81 0.77 0.71 0.80 1.12 1.36 1.50 1.59
0.75 0.82 0.93 1.03 1.07 1.08 1.14 1.22 1.29 1.42 1.71 1.67 1.29 1.13 1.16 1.33 1.50 1.46 1.32 1.26 1.22 1.69 1.51 1.55 1.55 1.38 1.17 1.08 1.11 1.16 1.17 1.00 0.84 0.78 0.89 1.19 1.53 1.71
0.62 0.68 0.72 0.88 1.06 1.21 1.52 1.69 1.56 1.47 1.32 1.11 0.98 0.89 0.81 0.81 0.93 1.00 1.00 0.91 0.80 0.79 0.97 0.96 1.06 1.03 1.03 1.01 0.93 0.93 1.06 1.22 1.32 1.25 1.16 1.14 1.21 1.39
1.03 1.02 1.15 1.25 1.35 1.26 1.11 1.04 1.16 1.16 1.23 1.32 1.09 0.87 0.77 0.69 0.68 0.72 0.78 0.84 0.86 0.84 0.72 0.63 0.55 0.51 0.60 0.74 0.83 0.93 0.93 0.97 1.07 1.23 1.32 1.33 1.40 1.52
1.17 1.31 1.32 1.60 1.22 1.24 1.22 1.18 1.13 1.10 0.94 0.75 0.67 0.65 0.69 0.74 0.78 0.84 0.93 1.05 1.02 0.72 0.71 0.68 0.62 0.54 0.46 0.45 0.68 0.72 0.80 0.86 0.90 0.90 1.02 1.21 1.22 1.21
0.82 0.83 0.65 0.70 0.78 0.66 0.78 0.76 0.71 0.62 0.55 0.55 0.48 0.39 0.36 0.37 0.50 0.62 0.66 0.73 0.64 0.52 0.65 0.73 0.63 0.58 0.45 0.45 0.47 0.40 0.47 0.57 0.63 0.69 0.76 0.83 1.00 1.22
0.47 0.38 0.32 0.32 0.39 0.38 0.40 0.44 0.46 0.42 0.41 0.37 0.35 0.35 0.35 0.38 0.47 0.65 0.59 0.59 0.47 0.33 0.30 0.41 0.28 0.32 0.25 0.26 0.34 0.32 0.35 0.37 0.39 0.45 0.54 0.67 0.77 0.85
0.19 0.16 0.19 0.17 0.29 0.30 0.25 0.27 0.28 0.25 0.40 0.47 0.55 0.63 0.65 0.61 0.48 0.48 0.58 0.60 0.47 0.18 0.10 0.17 0.12 0.16 0.17 0.18 0.20 0.30 0.32 0.38 0.46 0.53 0.48 0.50 0.63 0.74
0.05 0.06 0.14 0.21 0.29 0.22 0.18 0.11 0.12 0.04 0.07 0.09 0.11 0.19 0.28 0.33 0.39 0.31 0.28 0.57 0.54 0.63 0.30 0.47 0.27 0.24 0.54 0.16 0.15 0.22 0.25 0.30 0.33 0.40 0.65 0.75 0.69 0.70
0.03 0.02 0.05 0.19 0.31 0.28 0.23 0.11 0.13 0.12 0.10 0.09 0.06 0.11 0.18 0.28 0.33 0.35 0.37 0.55 0.84 0.68 0.18 0.87 1.06 0.52 0.91 0.35 0.08 0.11 0.14 0.20 0.28 0.34 0.45 0.63 0.87 0.90
0.04 0.03 0.07 0.19 0.30 0.24 0.17 0.11 0.15 0.17 0.10 0.06 0.07 0.08 0.15 0.22 0.28 0.36 0.49 0.61 0.63 0.74 0.36 0.62 1.48 0.71 1.09 0.87 0.34 0.13 0.16 0.18 0.24 0.30 0.37 0.58 0.76 0.89
0.04 0.09 0.14 0.20 0.27 0.18 0.09 0.11 0.11 0.09 0.09 0.13 0.10 0.09 0.11 0.16 0.31 0.51 0.65 0.74 0.86 0.82 0.76 0.83 1.07 0.90 1.24 1.28 0.66 0.26 0.31 0.28 0.24 0.27 0.37 0.52 0.64 0.72
0.07 0.11 0.18 0.23 0.24 0.14 0.11 0.11 0.09 0.11 0.17 0.24 0.19 0.14 0.19 0.29 0.43 0.50 0.67 0.65 0.89 0.72 0.72 0.90 0.90 1.17 1.50 0.95 0.90 0.65 0.30 0.50 0.40 0.38 0.46 0.45 0.53 0.70
0.40 0.25 0.23 0.20 0.18 0.16 0.13 0.12 0.19 0.26 0.33 0.31 0.39 0.43 0.40 0.40 0.40 0.39 0.62 0.81 0.98 0.63 0.54 0.58 0.79 0.90 0.95 0.97 1.15 0.62 0.44 0.38 0.33 0.51 0.60 0.54 0.45 0.66
0.46 0.31 0.21 0.17 0.16 0.16 0.19 0.23 0.29 0.36 0.38 0.47 0.54 0.55 0.63 0.62 0.56 0.56 0.62 0.77 0.76 0.51 0.58 0.64 0.71 1.05 0.97 0.80 0.76 0.70 0.66 0.44 0.32 0.33 0.45 0.86 0.48 0.33
0.42 0.16 0.14 0.16 0.18 0.19 0.25 0.32 0.34 0.28 0.40 0.62 0.72 0.72 0.78 0.82 0.83 0.74 0.57 0.69 0.66 0.53 0.57 0.70 0.95 1.43 1.64 0.75 0.40 0.45 0.86 0.70 0.47 0.45 0.44 0.56 0.61 0.35
0.26 0.18 0.14 0.14 0.20 0.29 0.33 0.41 0.47 0.48 0.53 0.56 0.66 0.68 0.82 1.01 0.88 0.68 0.62 0.73 0.77 0.72 0.69 0.65 0.76 1.09 1.85 1.26 1.19 0.45 0.41 0.82 0.99 0.72 0.44 0.41 0.55 0.47
0.18 0.23 0.16 0.19 0.30 0.37 0.44 0.56 0.67 0.68 0.65 0.78 0.70 0.68 0.65 1.02 0.88 0.60 0.70 0.64 0.81 0.92 0.77 0.39 0.30 0.64 1.15 1.58 1.60 0.64 0.53 0.57 0.81 1.20 0.95 1.02 0.55 0.42
0.19 0.28 0.28 0.35 0.42 0.50 0.61 0.67 0.76 0.64 0.62 0.57 0.50 0.55 0.62 0.85 0.96 0.80 0.72 0.90 0.65 0.52 0.51 0.40 0.53 0.72 0.97 1.41 0.91 0.44 0.41 0.45 0.51 0.51 0.70 1.42 1.76 1.57
0.38 0.47 0.48 0.49 0.55 0.65 0.76 0.80 0.71 0.53 0.45 0.56 0.57 0.56 0.67 0.89 0.64 0.74 0.76 0.76 0.72 0.83 0.63 0.62 0.57 0.64 0.75 0.78 0.87 0.71 0.49 0.41 0.35 0.37 0.41 0.42 0.44 0.47